Location: Newark
(25.4297°S, 49.2719°W)
Time: 10:53:53
(UTC+00:00)

Vanguard 1 Rocket - Pass Details

Date: 28 November 2019
Orbit: 650 x 4226 km, 34.3° (Epoch: 10 December)

Event Time Altitude Azimuth Distance (km) Brightness Sun altitude
Rises 17:39:37 0° 264° (W) 6,633 12.4 54.4°
Reaches altitude 10° 17:43:26 10° 260° (W) 5,994 12.4 53.6°
Maximum altitude 18:05:12 68° 177° (S) 4,334 11.6 48.7°
Drops below altitude 10° 18:31:13 10° 95° (E) 6,941 11.5 42.8°
Sets 18:36:05 0° 91° (E) 7,661 11.7 41.7°
